Hourly Data Report for October 17, 2013

All times are specified in Local Standard Time (LST). Add 1 hour to adjust for Daylight Saving Time where and when it is observed.

RANKIN INLET A
NUNAVUT

62°48'38.000" N
92°06'53.000" W
32.30 m
2303405
71083
YRT

Download Data

Hourly Data (October 2013)
Hourly Data Report for October 17, 2013
Temp Definition
°C
Dew Point Temp Definition
°C
Rel Hum Definition
%
Wind Dir Definition
10's deg

Wind Spd Definition
km/h
Visibility Definition
km
Stn Press Definition
kPa
Hmdx Definition


Wind Chill Definition


Weather Definition


TIME
00:00 Legend Double Dagger -3.0 -4.1 92 35 41 24.1 99.46   -11 Snow
01:00 Legend Double Dagger -3.5 -4.5 93 35 41 24.1 99.44   -12 Snow
02:00 Legend Double Dagger -3.7 -4.7 93 35 42 24.1 99.42   -13 Snow
03:00 Legend Double Dagger -3.8 -4.8 93 34 43 24.1 99.40   -13 Snow
04:00 Legend Double Dagger -3.7 -4.8 92 34 48 24.1 99.40   -13 Snow
05:00 Legend Double Dagger -3.9 -5.2 91 34 41 24.1 99.39   -13 Snow
06:00 Legend Double Dagger -4.8 -6.1 91 33 35 24.1 99.35   -13 Snow
07:00 Legend Double Dagger -5.3 -6.4 92 34 39 24.1 99.34   -14 Snow
08:00 Legend Double Dagger -5.8 -7.0 91 33 39 24.1 99.32   -15 Snow
09:00 Legend Double Dagger -6.2 -7.6 90 33 41 24.1 99.28   -16 Snow
10:00 Legend Double Dagger -6.6 -8.1 89 33 41 24.1 99.28   -16 LegendNANA
11:00 Legend Double Dagger -5.8 -7.6 87 33 43 24.1 99.26   -15 LegendNANA
12:00 Legend Double Dagger -5.4 -7.4 86 33 40 24.1 99.26   -15 Mainly Clear
13:00 Legend Double Dagger -4.6 -6.6 86 32 37 24.1 99.25   -13 LegendNANA
14:00 Legend Double Dagger -3.9 -6.2 84 32 40 24.1 99.25   -13 LegendNANA
15:00 Legend Double Dagger -3.7 -6.0 84 32 33 24.1 99.25   -12 Mostly Cloudy
16:00 Legend Double Dagger -3.9 -6.2 84 32 32 24.1 99.27   -12 LegendNANA
17:00 Legend Double Dagger -4.6 -6.8 85 31 30 24.1 99.30   -12 LegendNANA
18:00 Legend Double Dagger -4.8 -6.8 86 31 32 24.1 99.32   -13 Mainly Clear
19:00 Legend Double Dagger -5.5 -7.3 87 30 26 24.1 99.32   -13 LegendNANA
20:00 Legend Double Dagger -5.6 -7.6 86 31 33 24.1 99.34   -14 LegendNANA
21:00 Legend Double Dagger -6.0 -8.3 84 31 33 24.1 99.36   -15 Mainly Clear
22:00 Legend Double Dagger -6.3 -8.4 85 31 35 24.1 99.37   -15 LegendNANA
23:00 Legend Double Dagger -6.6 -8.6 86 32 35 24.1 99.40   -16 LegendNANA

Notes on Data Quality.

Legend

  • E = Estimated
  • M = Missing
  • NA = Not Available
  • ‡ = Partner data that is not subject to review by the National Climate Archives
Date modified: